Tracking 18844 objects as of 21-Nov-2017
HD Live streaming from Space Station
objects crossing your sky now

FENGYUN 1C DEB

Track FENGYUN 1C DEB now!
10-day predictions


NORAD ID: 31883
Int'l Code: 1999-025CKJ
Perigee: 611.7 km
Apogee: 830.6 km
Inclination: 99.1 °
Period: 99.1 minutes
Semi major axis: 7092 km
RCS: 0.0134 m2 (small)
Launch date: May 10, 1999
Source: People's Republic of China (PRC)
Launch site: Taiyaun Space Center, China (TSC)

Note: This is SATELLITE DEBRIS
aabbcc
Your satellite tracking list
Your tracking list is empty




NASA's NSSDC Master Catalog

Two Line Element Set (TLE):
1 31883U 99025CKJ 17324.79839300 +.00000653 +00000-0 +14653-3 0  9990
2 31883 099.0840 301.0831 0154321 342.1101 017.4696 14.53582278551132
Source of the keplerian elements: AFSPC